Regional Weather Roundup
Issued by NWS

Home | Current Version | Previous Version | Graphics & Text | Print | Product List | Glossary On
Versions: 1 2 3 4 5 6 7 8 9 10 11 12 13 14 15 16 17 18 19 20 21 22 23 24 25 26 27 28 29 30 31 32 33 34 35 36 37 38 39 40 41 42 43
000
ASUS43 KDMX 250707
RWRIA

WEATHER ROUNDUP FOR IOWA
NATIONAL WEATHER SERVICE DES MOINES IA
100 AM CST THU DEC 25 2014

NOTE: "FAIR" INDICATES FEW OR NO CLOUDS BELOW 12,000 FEET WITH NO
SIGNIFICANT WEATHER AND/OR OBSTRUCTIONS TO VISIBILITY.

* - THESE STATIONS ARE NOT NWS STATIONS...THUS NOT UNDER NWS
QUALITY CONTROL.  THEY ALSO DO NOT REPORT WEATHER SUCH
AS PRECIPITATION OR FOG.

IAZ001>003-012>014-020>022-031>034-043>046-250800-
   NORTHWEST IOWA

CITY           SKY/WX    TMP DP  RH WIND       PRES   REMARKS
CARROLL *      CLOUDY    30  28  93 S14G21    29.66F WCI  20
CHEROKEE *     CLEAR     28  28 100 S8        29.62S FOG     WCI  20
DENISON *      CLEAR     28  28 100 S13G21    29.63F WCI  18
LE MARS *      CLEAR     28  27  93 S10       29.59F WCI  19
ORANGE CITY *  CLEAR     28  25  86 S8        29.58S WCI  20
SHELDON *      CLOUDY    28  28 100 S12       29.57F WCI  18
SIOUX CITY     CLEAR     28  25  88 SE8       29.60F WCI  20
SPENCER        CLOUDY    28  26  92 S13       29.61F WCI  17
STORM LAKE *   CLOUDY    27  27 100 S14       29.62F FOG     WCI  15
$$

IAZ055>058-069>071-079>083-090>094-250800-
   SOUTHWEST IOWA

CITY           SKY/WX    TMP DP  RH WIND       PRES   REMARKS
ATLANTIC *     PTCLDY    30  28  93 S14       29.69R WCI  20
AUDUBON *      CLEAR     28  25  86 S9        29.68S WCI  20
CLARINDA *     CLEAR     30  28  93 S7        29.74F WCI  23
COUNCIL BLFS * CLEAR     28  28 100 SE10      29.65F WCI  19
CRESTON *      MOCLDY    28  28 100 S18       29.72S WCI  16
HARLAN  *      PTCLDY    28  28 100 S9        29.70F WCI  20
LAMONI         MOCLDY    30  28  92 S10       29.76S WCI  21
RED OAK *      CLEAR     30  28  93 S10       29.70F WCI  21
SHENANDOAH *   CLEAR     30  30 100 S13       29.72S WCI  20
$$

IAZ047>049-059>061-072>074-084-250800-
   CENTRAL IOWA

CITY           SKY/WX    TMP DP  RH WIND       PRES   REMARKS
AMES           CLOUDY    30  26  85 SW12      29.71S WCI  20
ANKENY *       CLOUDY    32  28  86 SW6G13    29.73F WCI  26
CHARITON *     CLOUDY    32  28  86 SW16      29.75S WCI  21
DES MOINES     CLOUDY    32  27  81 SW9       29.74S WCI  24
GRINNELL*      CLOUDY    30  28  93 SW15      29.74R WCI  19
KNOXVILLE *    CLOUDY    32  28  86 SW9       29.74S WCI  24
MARSHALLTOWN   CLOUDY    30  27  88 SW20      29.71R WCI  17
PELLA *        CLOUDY    32  28  86 SW8       29.77R WCI  25
PERRY *        CLOUDY    32  30  93 S12       29.71R WCI  23
$$

IAZ004>006-015-016-023>025-035-036-250800-
   NORTH CENTRAL IOWA

CITY           SKY/WX    TMP DP  RH WIND       PRES   REMARKS
ALGONA *       CLOUDY    28  28 100 SW15      29.64F WCI  17
CLARION *      CLOUDY    28  28 100 SW16      29.67S WCI  17
ESTHERVILLE    CLOUDY    26  25  96 SW14      29.61S WCI  14
FORT DODGE *   CLOUDY    28  25  86 SW9       29.68S WCI  20
MASON CITY     CLOUDY    28  26  92 SW9       29.67F WCI  19
FOREST CITY *  CLOUDY    28  27  93 SW16      29.65S WCI  17
IOWA FALLS *   CLOUDY    30  27  86 SW14G20   29.70S WCI  20
$$

IAZ007>011-017>019-026>030-037>042-050>054-066-250800-
   NORTHEAST IOWA

CITY           SKY/WX    TMP DP  RH WIND       PRES   REMARKS
CEDAR RAPIDS   CLOUDY    31  28  89 W9        29.72S WCI  23
CHARLES CITY * CLOUDY    28  28 100 SW13G20   29.67F WCI  18
CLINTON *      CLOUDY    34  28  80 W12       29.75S WCI  25
DECORAH *      CLOUDY    30  28  93 W12G20    29.65S WCI  21
DUBUQUE        CLOUDY    31  27  85 W20       29.69R WCI  19
MONTICELLO *   CLOUDY    32  32 100 SW15      29.71S WCI  22
OELWEIN *      CLOUDY    30  28  93 W10G18    29.69R WCI  21
WATERLOO       MIX PCPN  30  28  92 SW15      29.70S WCI  19
$$

IAZ064-065-067-068-078-250800-
   EAST CENTRAL IOWA

CITY           SKY/WX    TMP DP  RH WIND       PRES   REMARKS
DAVENPORT      CLOUDY    33  27  78 W15G23    29.75R WCI  23
IOWA CITY      FLURRIES  32  29  88 SW13      29.77R WCI  22
MT. PLEASANT * CLOUDY    32  30  93 SW17      29.78S WCI  21
MUSCATINE *    CLOUDY    34  28  80 W12       29.79R WCI  25
QUAD CITIES    CLOUDY    34  28  79 W13       29.76R WCI  25
$$

IAZ062-063-075>077-085>089-095>099-250800-
   SOUTHEAST IOWA

CITY           SKY/WX    TMP DP  RH WIND       PRES   REMARKS
BURLINGTON     CLOUDY    34  29  82 W14       29.79R WCI  25
FAIRFIELD *    CLOUDY    32  28  86 SW15G22   29.77F WCI  22
FORT MADISON * CLOUDY    36  30  80 W8        29.81R WCI  29
KEOKUK *       CLOUDY    34  30  86 SW12      29.80R WCI  25
OSKALOOSA *    CLOUDY    32  30  93 W16       29.77S WCI  21
CENTERVILLE *  CLOUDY    32  30  93 SW13G20   29.78S WCI  22
OTTUMWA        CLOUDY    32  28  85 SW12      29.77R WCI  23
WASHINGTON *   CLOUDY    32  32 100 W12G17    29.77R WCI  23
$$

ABBREVIATIONS USED IN REMARKS
   TC - TEMPERATURES IN CELSIUS
  WCI - WIND CHILL INDEX
   HX - HEAT INDEX
  VSB - VISIBILITY
$$




USA.gov is the U.S. government's official web portal to all federal, state and local government web resources and services.